TimeCDT,TemperatureF,Dew PointF,Humidity,Sea Level PressureIn,VisibilityMPH,Wind Direction,Wind SpeedMPH,Gust SpeedMPH,PrecipitationIn,Events,Conditions,WindDirDegrees,DateUTC
12:53 AM,44.1,34.0,68,30.12,10.0,Calm,Calm,-,N/A,,Overcast,0,2013-04-04 05:53:00
1:53 AM,44.1,35.1,71,30.09,10.0,Calm,Calm,-,N/A,,Overcast,0,2013-04-04 06:53:00
2:53 AM,43.0,35.1,74,30.09,10.0,SW,4.6,-,N/A,,Overcast,230,2013-04-04 07:53:00
3:53 AM,43.0,34.0,71,30.07,10.0,Calm,Calm,-,N/A,,Overcast,0,2013-04-04 08:53:00
4:53 AM,42.1,37.0,82,30.07,10.0,Calm,Calm,-,0.01,Rain,Light Rain,0,2013-04-04 09:53:00
5:53 AM,39.9,39.0,97,30.07,5.0,Calm,Calm,-,0.06,Rain,Light Rain,0,2013-04-04 10:53:00
6:53 AM,39.9,37.9,93,30.09,4.0,NW,3.5,-,0.11,Rain,Rain,320,2013-04-04 11:53:00
7:40 AM,39.2,37.4,93,30.08,2.0,Calm,Calm,-,0.11,Rain,Heavy Rain,0,2013-04-04 12:40:00
7:53 AM,39.0,37.9,96,30.10,1.8,NW,3.5,-,0.15,Rain,Rain,310,2013-04-04 12:53:00
8:15 AM,39.2,39.2,100,30.08,2.0,Calm,Calm,-,0.05,Rain,Rain,0,2013-04-04 13:15:00
8:37 AM,39.2,39.2,100,30.08,3.0,NW,3.5,-,0.08,Rain,Light Rain,310,2013-04-04 13:37:00
8:53 AM,39.9,39.0,97,30.10,4.0,Calm,Calm,-,0.08,Rain,Light Rain,0,2013-04-04 13:53:00
9:53 AM,41.0,39.0,93,30.10,6.0,NW,4.6,-,0.03,,Mostly Cloudy,320,2013-04-04 14:53:00
10:25 AM,41.0,39.2,93,30.09,7.0,NNW,3.5,-,N/A,,Overcast,330,2013-04-04 15:25:00
10:40 AM,41.0,39.2,93,30.09,6.0,NW,3.5,-,N/A,,Overcast,320,2013-04-04 15:40:00
10:53 AM,41.0,39.9,96,30.11,6.0,Calm,Calm,-,N/A,,Overcast,0,2013-04-04 15:53:00
11:53 AM,42.1,39.9,92,30.11,9.0,NNW,3.5,-,N/A,,Overcast,330,2013-04-04 16:53:00
12:00 PM,42.8,39.2,87,30.09,9.0,Calm,Calm,-,N/A,,Overcast,0,2013-04-04 17:00:00
12:33 PM,42.8,41.0,93,30.08,8.0,Calm,Calm,-,0.00,Rain,Light Rain,0,2013-04-04 17:33:00
12:50 PM,43.0,39.9,89,30.10,8.0,Variable,3.5,-,0.00,Rain,Light Rain,0,2013-04-04 17:50:00
1:24 PM,42.8,39.2,87,30.07,9.0,NNW,5.8,-,0.01,Rain,Light Rain,340,2013-04-04 18:24:00
1:48 PM,42.8,41.0,93,30.07,7.0,NW,4.6,-,0.02,Rain,Light Rain,320,2013-04-04 18:48:00
1:53 PM,43.0,39.9,89,30.09,6.0,NW,3.5,-,0.02,Rain,Light Rain,320,2013-04-04 18:53:00
2:19 PM,42.8,41.0,93,30.06,5.0,NW,3.5,-,0.01,Rain,Light Rain,320,2013-04-04 19:19:00
2:44 PM,42.8,41.0,93,30.06,4.0,Variable,4.6,-,0.03,Rain,Light Rain,0,2013-04-04 19:44:00
2:53 PM,43.0,41.0,93,30.07,6.0,NW,6.9,-,0.04,Rain,Light Rain,320,2013-04-04 19:53:00
3:30 PM,44.6,42.8,93,30.04,5.0,NNW,4.6,-,0.01,Rain,Light Rain,340,2013-04-04 20:30:00
3:40 PM,44.6,42.8,93,30.05,7.0,Variable,3.5,-,0.02,Rain,Light Rain,0,2013-04-04 20:40:00
3:53 PM,45.0,42.1,90,30.06,6.0,NNW,3.5,-,0.02,Rain,Light Rain,340,2013-04-04 20:53:00
3:58 PM,44.6,42.8,93,30.04,5.0,NW,5.8,-,0.00,Rain,Light Rain,320,2013-04-04 20:58:00
4:53 PM,44.1,41.0,89,30.07,9.0,Calm,Calm,-,0.03,Rain,Light Rain,0,2013-04-04 21:53:00
5:06 PM,44.6,41.0,87,30.05,10.0,Calm,Calm,-,0.00,Rain,Light Rain,0,2013-04-04 22:06:00
5:53 PM,46.0,43.0,89,30.06,10.0,Calm,Calm,-,0.01,,Overcast,0,2013-04-04 22:53:00
6:53 PM,46.9,42.1,83,30.06,10.0,Calm,Calm,-,N/A,,Scattered Clouds,0,2013-04-04 23:53:00
7:53 PM,45.0,43.0,93,30.07,9.0,West,3.5,-,N/A,,Scattered Clouds,280,2013-04-05 00:53:00
8:53 PM,43.0,42.1,97,30.09,2.5,Calm,Calm,-,N/A,,Partly Cloudy,0,2013-04-05 01:53:00
9:09 PM,42.8,42.8,100,30.07,5.0,Calm,Calm,-,N/A,,Mostly Cloudy,0,2013-04-05 02:09:00
9:30 PM,42.8,41.0,93,30.07,1.8,Calm,Calm,-,N/A,,Partly Cloudy,0,2013-04-05 02:30:00
9:53 PM,41.0,41.0,100,30.10,2.0,Calm,Calm,-,N/A,,Mostly Cloudy,0,2013-04-05 02:53:00
10:08 PM,42.8,42.8,100,30.08,4.0,Calm,Calm,-,N/A,,Overcast,0,2013-04-05 03:08:00
10:53 PM,42.1,41.0,96,30.11,2.5,Calm,Calm,-,N/A,,Overcast,0,2013-04-05 03:53:00
11:16 PM,41.0,39.2,93,30.10,1.5,Calm,Calm,-,N/A,,Mostly Cloudy,0,2013-04-05 04:16:00
11:27 PM,41.0,39.2,93,30.09,2.5,Calm,Calm,-,N/A,,Scattered Clouds,0,2013-04-05 04:27:00
11:36 PM,41.0,39.2,93,30.10,4.0,Calm,Calm,-,N/A,,Partly Cloudy,0,2013-04-05 04:36:00
11:48 PM,39.2,39.2,100,30.10,2.0,Calm,Calm,-,N/A,,Clear,0,2013-04-05 04:48:00
11:53 PM,39.9,39.0,97,30.12,1.2,Calm,Calm,-,N/A,,Clear,0,2013-04-05 04:53:00